CW5775 Weather Reports


time (UTC)temp
F
wind
direction
speed
knots
gust
knots
rain 1hr
in
rain 24hr
in
rain mn
in
humidity
%
barometer
mb
20260506201601 68 182 5.2 0.0 0.00 0.00 0.00 78 1004.0
20260506201410 69 183 5.2 10.4 0.00 0.00 0.00 78 1004.1
20260506200412 68 187 5.2 10.4 0.00 0.00 0.00 78 1004.1
20260506200010 68 218 4.3 0.0 0.00 0.00 0.00 78 1004.0
20260506195345 68 192 4.3 8.7 0.00 0.00 0.00 78 1004.4
20260506194554 67 174 5.2 0.0 0.00 0.00 0.00 79 1004.3
20260506194403 68 206 6.1 12.2 0.00 0.00 0.00 79 1004.4
20260506193341 67 186 6.1 11.3 0.00 0.00 0.00 80 1004.6
20260506193037 67 204 5.2 0.0 0.00 0.00 0.00 80 1004.5
20260506192339 67 212 5.2 12.2 0.00 0.00 0.00 80 1004.7
20260506191603 67 281 4.3 0.0 0.00 0.00 0.00 81 1004.6
20260506191358 67 179 4.3 9.6 0.00 0.00 0.00 81 1004.7
20260506190352 67 199 5.2 12.2 0.00 0.00 0.00 81 1004.7
20260506190100 66 173 5.2 0.0 0.00 0.00 0.00 82 1004.6
20260506185349 67 193 5.2 11.3 0.00 0.00 0.00 82 1005.0
20260506184546 66 184 5.2 0.0 0.00 0.00 0.00 82 1004.9
20260506184349 66 187 5.2 10.4 0.00 0.00 0.00 82 1005.0
20260506183402 66 156 6.1 10.4 0.00 0.00 0.00 82 1005.1
20260506183011 66 227 5.2 0.0 0.00 0.00 0.00 82 1005.0
20260506182350 66 189 6.1 10.4 0.00 0.00 0.00 82 1005.1
20260506181558 66 165 5.2 0.0 0.00 0.00 0.00 82 1005.0
20260506181415 66 183 5.2 11.3 0.00 0.00 0.00 82 1005.1
20260506180346 66 236 7.0 11.3 0.00 0.00 0.00 81 1005.2
20260506180036 66 164 5.2 0.0 0.00 0.00 0.00 81 1005.1
20260506175340 66 210 3.5 11.3 0.00 0.00 0.00 81 1005.2
20260506174510 66 162 5.2 0.0 0.00 0.00 0.00 81 1005.1
20260506174355 66 193 4.3 9.6 0.00 0.00 0.00 81 1005.2
20260506173353 66 210 6.1 10.4 0.00 0.00 0.00 81 1005.3
20260506173014 66 213 5.2 0.0 0.00 0.00 0.00 81 1005.2
20260506172348 67 257 7.8 12.2 0.00 0.00 0.00 80 1005.6
20260506171558 67 211 5.2 0.0 0.00 0.00 0.00 80 1005.5
20260506171404 67 181 4.3 12.2 0.00 0.00 0.00 80 1005.6
20260506170355 68 194 5.2 12.2 0.00 0.00 0.00 79 1005.7
20260506170046 67 199 5.2 0.0 0.00 0.00 0.00 80 1005.6
20260506165346 67 180 5.2 9.6 0.00 0.00 0.00 81 1005.7
20260506164535 67 171 4.3 0.0 0.00 0.00 0.00 81 1005.6
20260506164413 67 177 4.3 10.4 0.00 0.00 0.00 81 1005.7
20260506163344 67 181 6.1 9.6 0.00 0.00 0.00 82 1006.2
20260506163111 67 177 4.3 0.0 0.00 0.00 0.00 82 1006.1
20260506162401 68 210 4.3 8.7 0.00 0.00 0.00 78 1006.6
20260506161505 68 192 4.3 0.0 0.00 0.00 0.00 76 1006.5
20260506161404 69 185 4.3 10.4 0.00 0.00 0.00 76 1006.6
20260506160406 70 175 6.1 11.3 0.00 0.00 0.00 73 1006.7
20260506160023 69 191 5.2 0.0 0.00 0.00 0.00 73 1006.6
20260506155342 70 192 4.3 11.3 0.00 0.00 0.00 73 1006.7
20260506154611 69 191 4.3 0.0 0.00 0.00 0.00 71 1006.6
20260506154404 70 145 4.3 11.3 0.00 0.00 0.00 71 1006.7
20260506153353 70 202 4.3 11.3 0.00 0.00 0.00 70 1006.6
20260506153043 69 177 5.2 0.0 0.00 0.00 0.00 70 1006.5
20260506152350 70 232 4.3 10.4 0.00 0.00 0.00 69 1006.8
20260506151515 69 182 5.2 0.0 0.00 0.00 0.00 69 1006.7
20260506151414 70 189 4.3 11.3 0.00 0.00 0.00 69 1006.8
20260506150352 70 194 6.1 11.3 0.00 0.00 0.00 69 1006.7
20260506150108 69 177 5.2 0.0 0.00 0.00 0.00 69 1006.6
20260506145350 70 182 5.2 10.4 0.00 0.00 0.00 69 1006.8
20260506144537 69 209 4.3 0.0 0.00 0.00 0.00 69 1006.7
20260506144350 69 184 4.3 8.7 0.00 0.00 0.00 69 1006.8
20260506143346 69 194 5.2 15.6 0.00 0.00 0.00 69 1006.7
20260506143025 68 178 5.2 0.0 0.00 0.00 0.00 69 1006.6
20260506142344 69 201 4.3 10.4 0.00 0.00 0.00 69 1006.7
20260506141555 69 174 4.3 0.0 0.00 0.00 0.00 68 1006.6
20260506141340 69 192 6.1 10.4 0.00 0.00 0.00 68 1006.7
20260506140354 70 156 7.8 14.8 0.00 0.00 0.00 67 1006.7
20260506140054 69 191 6.1 0.0 0.00 0.00 0.00 67 1006.6
20260506135344 69 212 4.3 10.4 0.00 0.00 0.00 68 1006.7
20260506134535 68 201 4.3 0.0 0.00 0.00 0.00 69 1006.6
20260506134341 69 178 2.6 8.7 0.00 0.00 0.00 69 1006.7
20260506133352 69 203 4.3 9.6 0.00 0.00 0.00 69 1006.7
20260506133036 68 183 4.3 0.0 0.00 0.00 0.00 69 1006.6
20260506132347 69 235 5.2 11.3 0.00 0.00 0.00 69 1006.7
20260506131509 68 155 5.2 0.0 0.00 0.00 0.00 68 1006.6
20260506131344 69 184 4.3 12.2 0.00 0.00 0.00 69 1006.7
20260506130357 69 173 3.5 12.2 0.00 0.00 0.00 69 1007.0
20260506130051 68 173 6.1 0.0 0.00 0.00 0.00 69 1006.9
20260506125353 69 177 5.2 13.0 0.00 0.00 0.00 69 1007.0
20260506124531 68 221 6.1 0.0 0.00 0.00 0.00 69 1006.9
20260506124350 69 210 5.2 11.3 0.00 0.00 0.00 70 1007.0
20260506123342 68 177 5.2 13.0 0.00 0.00 0.00 71 1007.0
20260506123019 68 182 5.2 0.0 0.00 0.00 0.00 71 1006.8
20260506122337 67 181 6.1 10.4 0.00 0.00 0.00 72 1007.0
20260506121501 67 213 5.2 0.0 0.00 0.00 0.00 73 1006.9
20260506121420 67 184 6.1 13.0 0.00 0.00 0.00 73 1007.0
20260506120353 66 168 4.3 11.3 0.00 0.00 0.00 75 1007.0
20260506120057 65 221 4.3 0.0 0.00 0.00 0.00 76 1006.9
20260506115352 66 180 5.2 12.2 0.00 0.00 0.00 75 1006.9
20260506114513 65 160 4.3 0.0 0.00 0.00 0.00 77 1006.8
20260506114353 66 182 4.3 9.6 0.00 0.00 0.00 76 1006.9
20260506113347 65 189 4.3 9.6 0.00 0.00 0.00 78 1006.8
20260506113013 64 195 3.5 0.0 0.00 0.00 0.00 78 1006.7
20260506112414 65 190 3.5 9.6 0.00 0.00 0.00 78 1007.0
20260506111544 64 175 3.5 0.0 0.00 0.00 0.00 79 1006.9
20260506111353 64 199 3.5 9.6 0.00 0.00 0.00 79 1007.0
20260506110350 64 168 2.6 8.7 0.00 0.00 0.00 80 1007.1
20260506110037 63 194 4.3 0.0 0.00 0.00 0.00 79 1007.0
20260506105347 63 154 4.3 7.8 0.00 0.00 0.00 80 1006.9
20260506104503 63 157 3.5 0.0 0.00 0.00 0.00 80 1006.7
20260506104347 63 179 4.3 10.4 0.00 0.00 0.00 80 1006.9
20260506103338 63 209 5.2 10.4 0.00 0.00 0.00 81 1006.9
20260506103104 62 183 3.5 0.0 0.00 0.00 0.00 81 1006.8
20260506102339 63 185 4.3 7.8 0.00 0.00 0.00 81 1007.0
20260506101546 62 171 3.5 0.0 0.00 0.00 0.00 82 1006.9
20260506101407 63 184 2.6 7.8 0.00 0.00 0.00 81 1007.0
20260506100407 63 175 4.3 10.4 0.00 0.00 0.00 82 1006.7
20260506100115 62 177 3.5 0.0 0.00 0.00 0.00 82 1006.6
20260506095343 63 168 3.5 10.4 0.00 0.00 0.00 82 1006.7
20260506094540 62 183 3.5 0.0 0.00 0.00 0.00 82 1006.6
20260506094340 63 166 4.3 8.7 0.00 0.00 0.00 82 1006.7
20260506093338 63 171 3.5 9.6 0.00 0.00 0.00 82 1006.7
20260506093039 63 184 3.5 0.0 0.00 0.00 0.00 82 1006.5
20260506092351 63 207 3.5 7.8 0.00 0.00 0.00 82 1006.6
20260506091554 63 176 4.3 0.0 0.00 0.00 0.00 82 1006.5
20260506091348 63 178 4.3 10.4 0.00 0.00 0.00 82 1006.6
20260506090408 63 194 3.5 8.7 0.00 0.00 0.00 82 1006.7
20260506090041 63 173 4.3 0.0 0.00 0.00 0.00 82 1006.6
20260506085345 63 176 3.5 8.7 0.00 0.00 0.00 82 1006.8
20260506084558 63 179 3.5 0.0 0.00 0.00 0.00 82 1006.7
20260506084342 63 177 2.6 9.6 0.00 0.00 0.00 82 1006.8
20260506083404 64 178 2.6 10.4 0.00 0.00 0.00 82 1007.1
20260506083103 63 176 4.3 0.0 0.00 0.00 0.00 82 1006.9
20260506082408 64 189 5.2 9.6 0.00 0.00 0.00 82 1007.2
20260506081536 63 183 4.3 0.0 0.00 0.00 0.00 82 1007.0
20260506081342 64 191 3.5 10.4 0.00 0.00 0.00 82 1007.2
20260506080354 64 210 3.5 10.4 0.00 0.00 0.00 82 1007.1
20260506073339 64 171 4.3 7.8 0.00 0.00 0.00 82 1006.9
20260506073100 64 194 3.5 0.0 0.00 0.00 0.00 82 1006.7
20260506072416 64 170 4.3 8.7 0.00 0.00 0.00 82 1007.1
20260506071517 64 189 3.5 0.0 0.00 0.00 0.00 82 1007.0
20260506071351 64 208 3.5 8.7 0.00 0.00 0.00 81 1007.1
20260506070412 65 170 3.5 9.6 0.00 0.00 0.00 81 1007.2
20260506062357 65 181 3.5 9.6 0.00 0.00 0.00 80 1007.2
20260506061520 65 173 4.3 0.0 0.00 0.00 0.00 80 1007.1
20260506061351 65 194 3.5 7.8 0.00 0.00 0.00 80 1007.2
20260506060346 65 168 3.5 10.4 0.00 0.00 0.00 80 1007.2
20260506051346 66 199 3.5 9.6 0.00 0.00 0.00 79 1007.8
20260506050409 66 210 3.5 7.8 0.00 0.00 0.00 79 1007.8
20260506044525 65 180 4.3 0.0 0.00 0.00 0.00 79 1007.6
20260506044343 66 174 3.5 11.3 0.00 0.00 0.00 79 1007.8
20260506043351 66 203 3.5 7.8 0.00 0.00 0.00 78 1007.8
20260506043029 66 173 4.3 0.0 0.00 0.00 0.00 78 1007.7
20260506042342 66 184 4.3 9.6 0.00 0.00 0.00 78 1007.8
20260506041610 66 200 4.3 0.0 0.00 0.00 0.00 78 1007.6
20260506041358 66 174 4.3 10.4 0.00 0.00 0.00 77 1007.8
20260506040352 66 163 3.5 11.3 0.00 0.00 0.00 77 1007.8
20260506040005 66 181 4.3 0.0 0.00 0.00 0.00 77 1007.7
20260506035348 66 226 5.2 9.6 0.00 0.00 0.00 77 1007.8
20260506034554 66 187 4.3 0.0 0.00 0.00 0.00 76 1007.6
20260506034414 66 173 3.5 7.8 0.00 0.00 0.00 76 1007.8
20260506033347 67 189 4.3 8.7 0.00 0.00 0.00 76 1007.8
20260506033034 66 203 4.3 0.0 0.00 0.00 0.00 75 1007.7
20260506032341 67 173 4.3 7.8 0.00 0.00 0.00 75 1007.9
20260506031508 66 183 4.3 0.0 0.00 0.00 0.00 75 1007.7
20260506031353 67 180 4.3 8.7 0.00 0.00 0.00 75 1007.9
20260506030414 67 178 4.3 11.3 0.00 0.00 0.00 74 1007.9
20260506030053 67 191 4.3 0.0 0.00 0.00 0.00 74 1007.8
20260506025416 67 196 4.3 9.6 0.00 0.00 0.00 74 1008.1
20260506024505 67 176 5.2 0.0 0.00 0.00 0.00 73 1007.9
20260506024348 67 192 5.2 11.3 0.00 0.00 0.00 73 1008.1
20260506023344 68 201 3.5 11.3 0.00 0.00 0.00 72 1007.9
20260506023009 67 187 4.3 0.0 0.00 0.00 0.00 72 1007.8
20260506022338 68 173 4.3 7.8 0.00 0.00 0.00 71 1007.9
20260506021612 68 180 4.3 0.0 0.00 0.00 0.00 71 1007.8
20260506021337 68 187 4.3 7.8 0.00 0.00 0.00 70 1007.9
20260506020354 68 180 3.5 6.1 0.00 0.00 0.00 69 1007.8
20260506015348 69 175 3.5 12.2 0.00 0.00 0.00 68 1007.7
20260506014530 69 208 4.3 0.0 0.00 0.00 0.00 68 1007.6
20260506014402 69 199 3.5 10.4 0.00 0.00 0.00 67 1007.7
20260506013340 70 202 4.3 8.7 0.00 0.00 0.00 66 1007.6
20260506013013 69 178 4.3 0.0 0.00 0.00 0.00 66 1007.5
20260506012337 70 156 4.3 9.6 0.00 0.00 0.00 65 1007.4
20260506011615 69 174 4.3 0.0 0.00 0.00 0.00 65 1007.2
20260506011338 70 191 5.2 10.4 0.00 0.00 0.00 65 1007.4
20260506010337 70 179 4.3 7.8 0.00 0.00 0.00 65 1007.3
20260506010100 70 180 3.5 0.0 0.00 0.00 0.00 65 1007.1
20260506005357 70 210 4.3 11.3 0.00 0.00 0.00 65 1007.2
20260506004538 70 167 3.5 0.0 0.00 0.00 0.00 65 1007.1
20260506004355 70 203 2.6 6.1 0.00 0.00 0.00 65 1007.2
20260506003353 70 163 2.6 9.6 0.00 0.00 0.00 65 1006.8
20260506003034 70 222 3.5 0.0 0.00 0.00 0.00 64 1006.7
20260506002350 71 168 3.5 9.6 0.00 0.00 0.00 64 1006.8
20260506001503 71 182 4.3 0.0 0.00 0.00 0.00 64 1006.7
20260506001347 71 170 3.5 10.4 0.00 0.00 0.00 64 1006.8
20260506000409 72 208 3.5 6.1 0.00 0.00 0.00 63 1006.8
20260506000049 71 203 3.5 0.0 0.00 0.00 0.00 62 1006.7
20260505235411 73 169 3.5 12.2 0.00 0.00 0.00 61 1006.7
20260505234600 73 168 3.5 0.0 0.00 0.00 0.00 59 1006.6
20260505234349 73 187 3.5 9.6 0.00 0.00 0.00 59 1006.7
20260505233347 74 161 1.7 9.6 0.00 0.00 0.00 56 1006.5
20260505233105 74 177 3.5 0.0 0.00 0.00 0.00 55 1006.4
20260505232344 75 199 5.2 8.7 0.00 0.00 0.00 54 1006.6
20260505231549 75 178 3.5 0.0 0.00 0.00 0.00 52 1006.4
20260505231343 76 199 4.3 9.6 0.00 0.00 0.00 52 1006.6
20260505230404 77 173 4.3 8.7 0.00 0.00 0.00 49 1006.3
20260505230020 77 181 4.3 0.0 0.00 0.00 0.00 48 1006.2
20260505225359 78 173 4.3 9.6 0.00 0.00 0.00 47 1006.2
20260505224520 78 197 4.3 0.0 0.00 0.00 0.00 44 1006.1
20260505224337 79 184 4.3 11.3 0.00 0.00 0.00 44 1006.3
20260505223349 79 227 4.3 11.3 0.00 0.00 0.00 44 1006.2
20260505223031 78 204 5.2 0.0 0.00 0.00 0.00 44 1006.1
20260505222344 80 189 7.0 11.3 0.00 0.00 0.00 43 1006.2
20260505221502 80 179 6.1 0.0 0.00 0.00 0.00 43 1006.1
20260505221400 80 177 5.2 12.2 0.00 0.00 0.00 44 1006.2
20260505220351 81 180 7.8 13.9 0.00 0.00 0.00 44 1006.2
20260505220057 80 184 6.1 0.0 0.00 0.00 0.00 43 1006.1
20260505215344 81 202 7.8 14.8 0.00 0.00 0.00 43 1006.2
20260505214527 81 189 6.1 0.0 0.00 0.00 0.00 43 1006.0
20260505214401 81 199 5.2 13.0 0.00 0.00 0.00 42 1006.2
20260505213349 82 208 3.5 12.2 0.00 0.00 0.00 41 1005.9
20260505213103 81 170 5.2 0.0 0.00 0.00 0.00 41 1005.8
20260505212343 82 174 7.0 12.2 0.00 0.00 0.00 40 1005.8
20260505211548 82 213 6.1 0.0 0.00 0.00 0.00 39 1005.7
20260505211343 83 187 7.0 14.8 0.00 0.00 0.00 39 1005.8
20260505210354 83 116 6.1 13.9 0.00 0.00 0.00 40 1005.7
20260505210050 83 134 6.1 0.0 0.00 0.00 0.00 39 1005.6
20260505205347 83 180 6.1 13.0 0.00 0.00 0.00 39 1005.7
20260505204529 83 191 6.1 0.0 0.00 0.00 0.00 38 1005.6
20260505204345 84 180 7.0 13.0 0.00 0.00 0.00 38 1005.7
20260505203343 84 179 6.1 13.9 0.00 0.00 0.00 37 1005.7
20260505203053 84 170 6.1 0.0 0.00 0.00 0.00 37 1005.5
20260505202342 85 171 5.2 13.9 0.00 0.00 0.00 38 1005.7